| time (UTC) | temp F | wind direction | speed MPH | gust MPH | rain 1hr in | rain 24hr in | rain mn in | humidity % | barometer mb |
| 20260906083437 | 67 | 124 | 0.0 | 0.0 | 0.00 | 0.00 | 0.01 | ||
| 20260906081937 | 69 | 124 | 0.0 | 0.0 | 0.00 | 0.00 | 0.01 | ||
| 20260906080437 | 69 | 124 | 0.0 | 0.0 | 0.00 | 0.00 | 0.01 | ||
| 20260906074937 | 70 | 124 | 0.0 | 0.0 | 0.00 | 0.00 | 0.01 | ||
| 20260906073437 | 69 | 124 | 0.0 | 0.0 | 0.00 | 0.00 | 0.01 | ||
| 20260906071937 | 69 | 124 | 0.0 | 0.0 | 0.00 | 0.00 | 0.01 | ||
| 20260906070437 | 67 | 124 | 0.0 | 0.0 | 0.00 | 0.00 | 0.01 | ||
| 20260906064937 | 69 | 124 | 0.0 | 0.0 | 0.00 | 0.00 | 0.01 | ||
| 20260906063437 | 69 | 124 | 0.0 | 0.0 | 0.00 | 0.00 | 0.01 | ||
| 20260906061937 | 69 | 124 | 0.0 | 0.0 | 0.00 | 0.00 | 0.01 | ||
| 20260906060437 | 68 | 124 | 0.0 | 0.0 | 0.00 | 0.00 | 0.01 | ||
| 20260906054937 | 67 | 124 | 0.0 | 0.0 | 0.00 | 0.00 | 0.01 | ||
| 20260906053437 | 67 | 124 | 0.0 | 0.0 | 0.00 | 0.00 | 0.01 | ||
| 20260906051937 | 67 | 124 | 0.0 | 0.0 | 0.00 | 0.00 | 0.01 | ||
| 20260906050437 | 68 | 124 | 0.0 | 0.0 | 0.00 | 0.00 | 0.01 | ||
| 20260906044937 | 67 | 124 | 0.0 | 0.0 | 0.00 | 0.00 | 0.01 | ||
| 20260906043437 | 68 | 124 | 0.0 | 0.0 | 0.00 | 0.00 | 0.01 | ||
| 20260906040436 | 68 | 111 | 0.0 | 0.0 | 0.00 | 0.00 | 0.01 | ||
| 20260906033436 | 69 | 111 | 0.0 | 0.0 | 0.00 | 0.00 | 0.01 | ||
| 20260906030435 | 68 | 111 | 0.0 | 0.0 | 0.00 | 0.00 | 0.01 | ||
| 20260906023435 | 69 | 111 | 0.0 | 0.0 | 0.00 | 0.00 | 0.01 | ||
| 20260906020435 | 69 | 111 | 0.0 | 0.0 | 0.00 | 0.00 | 0.01 | ||
| 20260906014935 | 71 | 111 | 0.0 | 0.0 | 0.00 | 0.00 | 0.01 | ||
| 20260906013432 | 74 | 111 | 0.0 | 0.0 | 0.00 | 0.00 | 0.01 | ||
| 20260906011932 | 76 | 111 | 0.0 | 0.0 | 0.00 | 0.00 | 0.01 | ||
| 20260906010432 | 81 | 111 | 0.0 | 0.0 | 0.00 | 0.00 | 0.01 | ||
| 20260906004931 | 83 | 153 | 0.0 | 2.0 | 0.00 | 0.00 | 0.01 | ||
| 20260906003431 | 82 | 51 | 0.0 | 0.0 | 0.00 | 0.00 | 0.01 | ||
| 20260906001930 | 80 | 136 | 3.0 | 2.0 | 0.00 | 0.00 | 0.01 | ||
| 20260905230429 | 80 | 128 | 4.0 | 4.0 | 0.00 | 0.00 | 0.01 | ||
| 20260905224928 | 85 | 53 | 7.0 | 3.0 | 0.00 | 0.00 | 0.01 | ||
| 20260905221928 | 86 | 83 | 6.0 | 6.0 | 0.01 | 0.00 | 0.01 | ||
| 20260905211924 | 83 | 51 | 6.0 | 5.0 | 0.00 | 0.00 | 0.01 | ||
| 20260905210423 | 86 | 332 | 0.0 | 0.0 | 0.00 | 0.00 | 0.00 | ||
| 20260905204922 | 88 | 260 | 2.0 | 1.0 | 0.00 | 0.00 | 0.00 | ||
| 20260905203422 | 89 | 8 | 3.0 | 2.0 | 0.00 | 0.00 | 0.00 | ||
| 20260905201921 | 91 | 319 | 1.0 | 2.0 | 0.00 | 0.00 | 0.00 | ||
| 20260905200421 | 89 | 321 | 1.0 | 3.0 | 0.00 | 0.00 | 0.00 | ||
| 20260905193419 | 87 | 342 | 2.0 | 4.0 | 0.00 | 0.00 | 0.00 | ||
| 20260905191919 | 88 | 34 | 1.0 | 0.0 | 0.00 | 0.00 | 0.00 | ||
| 20260905190418 | 86 | 335 | 1.0 | 4.0 | 0.00 | 0.00 | 0.00 | ||
| 20260905181917 | 87 | 359 | 5.0 | 6.0 | 0.00 | 0.00 | 0.00 | ||
| 20260905174916 | 86 | 330 | 2.0 | 1.0 | 0.00 | 0.00 | 0.00 | ||
| 20260905173416 | 87 | 235 | 2.0 | 3.0 | 0.00 | 0.00 | 0.00 | ||
| 20260905171916 | 88 | 13 | 2.0 | 3.0 | 0.00 | 0.00 | 0.00 | ||
| 20260905170415 | 86 | 248 | 2.0 | 0.0 | 0.00 | 0.00 | 0.00 | ||
| 20260905164915 | 85 | 10 | 0.0 | 0.0 | 0.00 | 0.00 | 0.00 | ||
| 20260905163415 | 85 | 359 | 0.0 | 1.0 | 0.00 | 0.00 | 0.00 | ||
| 20260905154914 | 83 | 297 | 0.0 | 0.0 | 0.00 | 0.00 | 0.00 | ||
| 20260905153414 | 84 | 314 | 0.0 | 0.0 | 0.00 | 0.00 | 0.00 | ||
| 20260905151913 | 84 | 284 | 0.0 | 0.0 | 0.00 | 0.00 | 0.00 | ||
| 20260905150413 | 83 | 256 | 0.0 | 0.0 | 0.00 | 0.00 | 0.00 | ||
| 20260905143414 | 81 | 107 | 0.0 | 0.0 | 0.00 | 0.00 | 0.00 | ||
| 20260905141915 | 80 | 107 | 0.0 | 0.0 | 0.00 | 0.00 | 0.00 | ||
| 20260905140415 | 78 | 107 | 0.0 | 0.0 | 0.00 | 0.00 | 0.00 | ||
| 20260905134915 | 72 | 107 | 0.0 | 0.0 | 0.00 | 0.00 | 0.00 | ||
| 20260905133415 | 69 | 107 | 0.0 | 0.0 | 0.00 | 0.00 | 0.00 | ||
| 20260905131917 | 65 | 107 | 0.0 | 0.0 | 0.00 | 0.00 | 0.00 | ||
| 20260905130416 | 63 | 107 | 0.0 | 0.0 | 0.00 | 0.00 | 0.00 | ||
| 20260905123416 | 62 | 107 | 0.0 | 0.0 | 0.00 | 0.00 | 0.00 | ||
| 20260905120416 | 62 | 107 | 0.0 | 0.0 | 0.00 | 0.00 | 0.00 | ||
| 20260905114917 | 63 | 107 | 0.0 | 0.0 | 0.00 | 0.00 | 0.00 | ||
| 20260905111916 | 61 | 107 | 0.0 | 0.0 | 0.00 | 0.00 | 0.00 | ||
| 20260905110416 | 62 | 107 | 0.0 | 0.0 | 0.00 | 0.00 | 0.00 | ||
| 20260905104916 | 62 | 107 | 0.0 | 0.0 | 0.00 | 0.00 | 0.00 | ||
| 20260905103416 | 62 | 107 | 0.0 | 0.0 | 0.00 | 0.00 | 0.00 | ||
| 20260905101916 | 63 | 107 | 0.0 | 0.0 | 0.00 | 0.00 | 0.00 | ||
| 20260905100416 | 65 | 107 | 0.0 | 0.0 | 0.00 | 0.00 | 0.00 | ||
| 20260905094915 | 65 | 107 | 0.0 | 0.0 | 0.00 | 0.00 | 0.00 | ||
| 20260905093416 | 65 | 107 | 0.0 | 0.0 | 0.00 | 0.00 | 0.00 | ||
| 20260905091916 | 65 | 107 | 0.0 | 0.0 | 0.00 | 0.00 | 0.00 | ||
| 20260905090416 | 65 | 107 | 0.0 | 0.0 | 0.00 | 0.00 | 0.00 | ||
| 20260905084916 | 65 | 107 | 0.0 | 0.0 | 0.00 | 0.00 | 0.00 |